Weather in Grozny

Russia / Republic of Adygea     44°38′49″N   40°11′13″E
temp.,
°C
wind,
m/s
gust,
m/s
humid.,
%
clouds,
%
prec.,
mm/h
press.,
hPa
HPBL,
m
8 may, sat
sat800:00+12se33859 0.0 101725
03:00+11se338994 0.0 101638
06:00+12s2287100 0.0 101629
09:00+18ssw0170100 0.0 1015326
12:00+22ene1160100 0.0 1013767
15:00+23ne115396 0.0 10121065
18:00+21e347185 0.0 101182
21:00+16se227895 0.0 101111
9 may, sun
sun900:00+14wsw3784100 0.0 1010111
03:00+14w51169100 0.0 1011411
06:00+12ene1289100 0.1 101157
09:00+9nw81298100 6.0 1014677
12:00+8wnw61096100 1.3 1018674
15:00+7w4895100 6.1 1020885
18:00+8wnw5790100 2.1 1022727
21:00+6wsw469571 2.3 1025110
10 may, mon
mon1000:00+5sw489426 0.1 1025133
03:00+5wsw379383 0.4 1025119
06:00+5sw37935 0.1 1025172
09:00+9wnw577697 0.6 1024675
12:00+11wnw686188 0.6 10241629
15:00+12wnw81060100 1.0 10231837
18:00+8nnw61081100 0.6 1023741
21:00+7sw51086100 0.6 1023346
11 may, tue
tue1100:00+7w61289100 0.6 1021720
03:00+7wsw71482100 0.9 10191121
06:00+7sw101788100 2.3 10181084
09:00+7wsw81792100 8.3 10181282
12:00+9w10178296 2.5 10171435
15:00+13wsw81365100 2.6 10171703
18:00+10w4773100 0.1 1018245
21:00+8ese3492100 0.6 1019123
12 may, wed
wed1200:00+8ese2397100 1.4 1018109
03:00+8e4797100 1.9 1018251
06:00+7e479857 0.0 1017273
09:00+12e448245 0.0 1016626
12:00+16e456714 0.0 10151111
15:00+19e45605 0.0 10141370
18:00+17ene48772 0.0 1013397
21:00+11ese410910 0.0 1014188